Flag for U.S.A. Weather past 2 weeks in Howland Island, U.S.A.

Now
84 °F

Warm.


Feels Like: 94 °F
Forecast: 81 / 87 °F
Wind: N/A

Location: Funafuti

Current Time: Dec 18, 2014 at 7:55:02 AM

Latest Report: Dec 18, 2014 at 7:00 AM


Visibility: N/A

Pressure: 29.80 "Hg

Humidity: 79%

Dew point: 77 °F

Location of Howland IslandLocation

Historic Weather in Howland Island — Graph

°F

Howland Island temperature yesterday

Maximum temperature yesterday: 90 °F (at 11:00 AM)
Minimum temperature yesterday: 82 °F (at 12:00 AM)
Average temperature yesterday: 86 °F

Past Weeks' High & Low Weather Summary

 TemperatureHumidityPressure
High91 °F (Dec 9, 3:00 PM)100% (Dec 4, 2:00 AM)29.89 "Hg (Dec 4, 2:00 AM)
Low77 °F (Dec 4, 2:00 AM)63% (Dec 8, 12:00 PM)29.65 "Hg (Dec 15, 3:00 PM)
Average85 °F78%29.79 "Hg
* Reported Dec 3 6:00 AM — Dec 18 6:00 AM, Howland Island, Weather by CustomWeather, © 2014

Note: Actual official high and low records may vary slightly from our data, if they occured in-between our weather recording intervals... More about our weather records

Advertising

Howland Island weather history for previous 24 hours

 ConditionsComfort  
Time TempWeatherWind HumidityBarometerVisibility
6:00 AM
Dec 18
84 °FScattered clouds.6 mph74%29.77 "HgN/A
5:00 AM82 °FPassing clouds.3 mph84%29.83 "HgN/A
2:00 AM84 °FPassing clouds.No wind74%29.83 "HgN/A
1:00 AM82 °FPassing clouds.3 mph79%29.80 "HgN/A
12:00 AM84 °FPassing clouds.5 mph74%29.83 "HgN/A
11:00 PM
Dec 17
84 °FPassing clouds.1 mph79%29.83 "HgN/A
10:00 PM84 °FPassing clouds.2 mph79%29.86 "HgN/A
9:00 PM84 °FPassing clouds.5 mph79%29.83 "HgN/A
8:00 PM84 °FPassing clouds.1 mph79%29.83 "HgN/A
7:00 PM84 °FPassing clouds.2 mph79%29.80 "HgN/A
6:00 PM88 °FScattered clouds.3 mph70%29.80 "HgN/A
5:00 PM88 °FScattered clouds.3 mph75%29.77 "HgN/A
4:00 PM90 °FScattered clouds.5 mph67%29.74 "HgN/A
3:00 PM90 °FScattered clouds.5 mph67%29.74 "HgN/A
2:00 PM90 °FScattered clouds.5 mph63%29.77 "HgN/A
1:00 PM90 °FBroken clouds.5 mph71%29.80 "HgN/A
12:00 PM90 °FPartly sunny.5 mph71%29.80 "HgN/A
11:00 AM90 °FPartly sunny.5 mph71%29.83 "HgN/A
10:00 AM88 °FBroken clouds.6 mph75%29.83 "HgN/A
9:00 AM86 °FCloudy.5 mph75%29.83 "HgN/A
8:00 AM84 °FScattered showers. More clouds than sun.5 mph79%29.83 "HgN/A
7:00 AM84 °FScattered showers. More clouds than sun.6 mph79%29.83 "HgN/A
Weather by CustomWeather, © 2014

See weather overviewHow to use our weather pages